Date String (YYYY-MM-DD hh:mm:ss) UTC,Instrument flags,Ambient pressure (hPa),Sample flow (lpm),Bypass flow (lpm),Sample temperature (°C),Ambient temperature (°C),ASC tube jacket temperature (°C),LED temperature (°C),Box temperature (°C),Sample RH (%),Span deviation,Mass concentration (μg/m³),Mass concentration (μg/m³),Mass concentration (μg/m³)
DateTimeUTC,F1_M11,P_M11,Q1_M11,Q2_M11,T1_M11,T2_M11,T3_M11,T4_M11,T5_M11,U1_M11,ZSPAN_M11,X0_M11,X2_M11,X1_M11
2022-01-15 22:00:00,,0827.9,5.01,0.00,23.6,23.1,00.0,32.5,25.5,10.1,0000.0,0008.71,0003.71,0003.28
2022-01-15 22:01:00,,0827.9,5.00,0.00,23.7,23.2,00.0,32.5,25.5,10.1,0000.0,0009.14,0003.69,0003.27
2022-01-15 22:02:00,,0827.9,4.99,0.00,23.7,23.2,00.0,32.5,25.5,10.4,0000.0,0009.29,0003.75,0003.29
2022-01-15 22:03:00,,0828.0,5.00,0.00,23.7,23.2,00.0,32.5,25.6,10.3,0000.0,0009.37,0003.74,0003.29
2022-01-15 22:04:00,,0827.8,4.99,0.00,23.8,23.3,00.0,32.6,25.6,10.1,0000.0,0009.37,0003.74,0003.28
2022-01-15 22:05:00,,0827.8,5.01,0.00,23.8,23.3,00.0,32.6,25.6,10.0,0000.0,0009.28,0003.75,0003.29
2022-01-15 22:06:00,,0827.8,4.99,0.00,23.8,23.3,00.0,32.6,25.7,10.1,0000.0,0008.72,0003.74,0003.30
2022-01-15 22:07:00,,0827.9,5.00,0.00,23.9,23.4,00.0,32.6,25.7,10.1,0000.0,0008.40,0003.70,0003.29
2022-01-15 22:08:00,,0827.9,4.99,0.00,23.9,23.4,00.0,32.7,25.8,09.7,0000.0,0008.25,0003.69,0003.29
2022-01-15 22:09:00,,0827.9,5.02,0.00,23.9,23.4,00.0,32.7,25.9,09.7,0000.0,0007.95,0003.73,0003.30
2022-01-15 22:10:00,,0827.8,4.99,0.00,24.0,23.5,00.0,32.7,25.9,09.6,0000.0,0007.92,0003.74,0003.32
2022-01-15 22:11:00,,0827.8,5.00,0.00,24.0,23.5,00.0,32.7,25.9,09.5,0000.0,0007.86,0003.74,0003.34
2022-01-15 22:12:00,,0827.8,5.00,0.00,24.0,23.5,00.0,32.8,26.0,09.4,0000.0,0007.17,0003.79,0003.36
2022-01-15 22:13:00,,0827.9,4.99,0.00,24.0,23.6,00.0,32.8,26.0,09.5,0000.0,0007.68,0003.77,0003.37
2022-01-15 22:14:00,,0827.8,5.02,0.00,24.1,23.6,00.0,32.8,26.0,09.4,0000.0,0007.81,0003.80,0003.40
2022-01-15 22:15:00,,0827.8,5.00,0.00,24.1,23.6,00.0,32.9,26.1,09.2,0000.0,0007.89,0003.82,0003.42
2022-01-15 22:16:00,,0827.8,4.99,0.00,24.1,23.6,00.0,32.9,26.1,09.2,0000.0,0007.90,0003.85,0003.46
2022-01-15 22:17:00,,0827.8,5.00,0.00,24.2,23.7,00.0,32.9,26.1,09.3,0000.0,0007.95,0003.88,0003.49
2022-01-15 22:18:00,,0827.9,5.00,0.00,24.2,23.7,00.0,32.9,26.1,09.2,0000.0,0007.94,0003.90,0003.53
2022-01-15 22:19:00,,0827.8,5.01,0.00,24.2,23.7,00.0,32.9,26.2,09.2,0000.0,0007.81,0003.89,0003.56
2022-01-15 22:20:00,,0827.8,4.99,0.00,24.2,23.7,00.0,33.0,26.2,09.1,0000.0,0007.74,0003.88,0003.58
2022-01-15 22:21:00,,0827.8,5.01,0.00,24.3,23.7,00.0,33.0,26.2,09.2,0000.0,0007.96,0003.89,0003.59
2022-01-15 22:22:00,,0827.8,4.98,0.00,24.3,23.8,00.0,33.0,26.2,09.4,0000.0,0008.16,0003.90,0003.60
2022-01-15 22:23:00,,0827.8,5.01,0.00,24.3,23.8,00.0,33.1,26.3,09.3,0000.0,0008.12,0003.90,0003.61
2022-01-15 22:24:00,,0827.9,5.00,0.00,24.3,23.8,00.0,33.1,26.3,09.1,0000.0,0007.74,0003.90,0003.63
2022-01-15 22:25:00,,0827.7,5.00,0.00,24.4,23.8,00.0,33.1,26.3,09.1,0000.0,0007.92,0003.91,0003.63
2022-01-15 22:26:00,,0827.7,5.00,0.00,24.4,23.9,00.0,33.1,26.3,09.0,0000.0,0008.04,0003.92,0003.63
2022-01-15 22:27:00,,0827.7,4.99,0.00,24.4,23.9,00.0,33.2,26.4,09.2,0000.0,0008.16,0003.95,0003.64
2022-01-15 22:28:00,,0827.7,5.01,0.00,24.5,23.9,00.0,33.2,26.4,09.8,0000.0,0008.30,0003.99,0003.64
2022-01-15 22:29:00,,0827.7,4.99,0.00,24.5,23.9,00.0,33.2,26.4,10.2,0000.0,0008.49,0004.03,0003.64
2022-01-15 22:30:00,,0827.7,5.02,0.00,24.5,24.0,00.0,33.2,26.4,10.2,0000.0,0009.35,0004.06,0003.63
2022-01-15 22:31:00,,0827.7,4.98,0.00,24.5,24.0,00.0,33.3,26.5,09.9,0000.0,0009.49,0004.09,0003.65
2022-01-15 22:32:00,,0827.7,5.02,0.00,24.5,24.0,00.0,33.3,26.5,09.7,0000.0,0009.43,0004.12,0003.70
2022-01-15 22:33:00,,0827.7,5.00,0.00,24.6,24.0,00.0,33.3,26.5,09.7,0000.0,0009.41,0004.18,0003.75
2022-01-15 22:34:00,,0827.7,5.00,0.00,24.6,24.0,00.0,33.3,26.5,09.8,0000.0,0009.47,0004.23,0003.79
2022-01-15 22:35:00,,0827.7,5.00,0.00,24.6,24.1,00.0,33.4,26.6,09.9,0000.0,0009.42,0004.26,0003.82
2022-01-15 22:36:00,,0827.7,4.99,0.00,24.6,24.1,00.0,33.4,26.6,10.0,0000.0,0009.07,0004.27,0003.84
2022-01-15 22:37:00,,0827.7,5.02,0.00,24.7,24.1,00.0,33.4,26.6,10.1,0000.0,0009.03,0004.30,0003.88
2022-01-15 22:38:00,,0827.7,4.99,0.00,24.7,24.1,00.0,33.4,26.6,09.9,0000.0,0009.08,0004.33,0003.93
2022-01-15 22:39:00,,0827.7,5.00,0.00,24.7,24.1,00.0,33.5,26.6,09.8,0000.0,0009.19,0004.35,0003.97
2022-01-15 22:40:00,,0827.7,4.99,0.00,24.7,24.1,00.0,33.5,26.6,10.0,0000.0,0009.19,0004.37,0004.02
2022-01-15 22:41:00,,0827.7,5.00,0.00,24.7,24.2,00.0,33.5,26.6,10.0,0000.0,0008.49,0004.44,0004.08
2022-01-15 22:42:00,,0827.7,5.00,0.00,24.7,24.2,00.0,33.5,26.7,09.9,0000.0,0008.56,0004.50,0004.12
2022-01-15 22:43:00,,0827.6,5.00,0.00,24.8,24.2,00.0,33.5,26.7,10.1,0000.0,0008.59,0004.56,0004.17
2022-01-15 22:44:00,,0827.7,5.02,0.00,24.8,24.2,00.0,33.6,26.7,10.2,0000.0,0008.74,0004.63,0004.21
2022-01-15 22:45:00,,0827.7,5.00,0.00,24.8,24.2,00.0,33.6,26.7,10.1,0000.0,0008.96,0004.72,0004.25
2022-01-15 22:46:00,,0827.6,5.00,0.00,24.8,24.2,00.0,33.6,26.7,10.1,0000.0,0009.12,0004.81,0004.29
2022-01-15 22:47:00,,0827.7,5.01,0.00,24.8,24.2,00.0,33.6,26.7,10.1,0000.0,0009.39,0004.92,0004.34
2022-01-15 22:48:00,,0827.7,4.98,0.00,24.8,24.2,00.0,33.6,26.7,10.1,0000.0,0009.59,0005.00,0004.37
2022-01-15 22:49:00,,0827.7,5.00,0.00,24.8,24.2,00.0,33.6,26.8,10.0,0000.0,0009.61,0005.05,0004.38
2022-01-15 22:50:00,,0827.7,5.01,0.00,24.9,24.2,00.0,33.7,26.8,10.1,0000.0,0009.55,0005.07,0004.38
2022-01-15 22:51:00,,0827.7,4.99,0.00,24.9,24.3,00.0,33.7,26.8,10.1,0000.0,0009.69,0005.11,0004.38
2022-01-15 22:52:00,,0827.6,5.01,0.00,24.9,24.3,00.0,33.7,26.8,10.0,0000.0,0010.09,0005.13,0004.38
2022-01-15 22:53:00,,0827.6,4.98,0.00,24.9,24.3,00.0,33.7,26.8,10.0,0000.0,0011.50,0005.10,0004.36
2022-01-15 22:54:00,,0827.7,5.01,0.00,24.9,24.3,00.0,33.7,26.8,09.9,0000.0,0011.44,0005.08,0004.33
2022-01-15 22:55:00,,0827.7,4.99,0.00,24.9,24.3,00.0,33.7,26.8,10.0,0000.0,0011.31,0005.04,0004.30
2022-01-15 22:56:00,,0827.6,5.00,0.00,24.9,24.3,00.0,33.7,26.9,09.9,0000.0,0011.47,0004.97,0004.27
2022-01-15 22:57:00,,0827.6,5.00,0.00,25.0,24.3,00.0,33.8,26.9,10.1,0000.0,0012.06,0004.94,0004.23
2022-01-15 22:58:00,,0827.5,4.99,0.00,25.0,24.3,00.0,33.8,26.9,10.1,0000.0,0012.02,0004.91,0004.21
2022-01-15 22:59:00,,0827.5,5.01,0.00,25.0,24.4,00.0,33.8,26.9,10.1,0000.0,0011.93,0004.86,0004.19
